Tracking 19636 objects as of 25-May-2019
HD Live streaming from Space Station
objects crossing your sky now

SERT 2

Track SERT 2 now!
10-day predictions
SERT 2 is classified as:


NORAD ID: 4327
Int'l Code: 1970-009A
Perigee: 1,044.3 km
Apogee: 1,052.4 km
Inclination: 99.2 °
Period: 106.0 minutes
Semi major axis: 7419 km
RCS: 5.0507 m2 (large)
Launch date: February 4, 1970
Source: United States (US)
Launch site: AIR FORCE WESTERN TEST RANGE (AFWTR)
aabbcc
Your satellite tracking list
Your tracking list is empty




NASA's NSSDC Master Catalog

Two Line Element Set (TLE):
1  4327U 70009A   19144.88407375 -.00000027 +00000-0 +19404-4 0  9995
2  4327 099.2475 210.4699 0005499 047.7904 076.9540 13.58488244443035
Source of the keplerian elements: AFSPC